Regional Weather Roundup
Issued by NWS San Angelo, TX

Home | Current Version | Previous Version | Text Only | Print | Product List | Glossary On
Versions: 1 2 3 4 5 6 7 8 9 10 11 12 13 14 15 16 17 18 19 20 21 22 23 24 25 26 27 28 29 30 31 32 33 34 35 36 37 38 39 40 41 42 43 44 45 46 47 48 49 50
000
ASUS44 KSJT 200810
RWRSJT
WEST CENTRAL TEXAS REGIONAL WEATHER ROUNDUP
NATIONAL WEATHER SERVICE SAN ANGELO TX
200 AM CST MON FEB 20 2017

NOTE: "FAIR" INDICATES FEW OR NO CLOUDS BELOW 12,000 FEET WITH NO
SIGNIFICANT WEATHER AND/OR OBSTRUCTIONS TO VISIBILITY.

TXZ049-054-064>066-071>073-076>078-098-099-113-114-127-128-139-140-
154-155-168>170-200900
...LOCATIONS ACROSS WEST CENTRAL TEXAS...

CITY           SKY/WX    TMP DP  RH WIND       PRES   REMARKS
SAN ANGELO     CLOUDY    52  50  93 CALM      29.90F
ABILENE        CLOUDY    52  52 100 S6        29.89S
DYESS AFB      CLOUDY    54  53  95 SW6       29.87S
JUNCTION       CLOUDY    54  54 100 CALM      29.91F
SWEETWATER     CLOUDY    54  49  83 S9        29.92F
BROWNWOOD      CLOUDY    55  55 100 S3        29.89F
COLEMAN        CLOUDY    55  53  95 CALM      29.90R
SONORA         PTCLDY    54  52  94 CALM      29.95F
OZONA          NOT AVBL
BRADY          NOT AVBL
$$

TEXAS PANHANDLE/OKLAHOMA PANHANDLE

CITY           SKY/WX    TMP DP  RH WIND       PRES   REMARKS
AMARILLO       CLOUDY    46  33  60 S10       29.83R
BORGER         CLOUDY    54  31  41 SW15G21   29.79R
CANADIAN       MOCLDY    54  40  60 SW7       29.79S
DALHART        CLOUDY    45  31  58 SW12      29.78R WCI  39
DUMAS          CLOUDY    46  30  53 SW13      29.79R WCI  40
GUYMON         NOT AVBL
HEREFORD       CLOUDY    47  34  59 W12       29.86R
PAMPA          CLOUDY    51  36  57 SW13      29.81F
PERRYTON       CLOUDY    54  39  58 S9        29.76S
$$

SOUTHERN PANHANDLE/SOUTH PLAINS/ROLLING PLAINS

CITY           SKY/WX    TMP DP  RH WIND       PRES   REMARKS
LUBBOCK        CLOUDY    49  32  52 W10       29.88R
SNYDER         CLOUDY    52  47  82 S7        29.92R
CHILDRESS      CLOUDY    55  44  66 S7        29.85R
SEMINOLE       SUNNY     42  29  59 W9        29.94S WCI  37
$$

PERMIAN BASIN

CITY           SKY/WX    TMP DP  RH WIND       PRES   REMARKS
MIDLAND        CLEAR     47  35  63 W8        29.93F
ODESSA         CLEAR     46  31  55 W7        29.95S
WINK           CLEAR     42  27  55 W8        29.95R WCI  37
$$

FAR WEST/SOUTHWEST MOUNTAINS/TRANS PECOS

CITY           SKY/WX    TMP DP  RH WIND       PRES   REMARKS
ALPINE         SUNNY     46  25  44 SW7       30.09S
DRYDEN           N/A     54  43  66 W14       29.95S
EL PASO        PTCLDY    49  34  56 W22G30    30.04R
FORT STOCKTON  CLEAR     47  26  44 SW10      29.99S
GUADALUPE PASS CLEAR     38  28  67 SW17      30.02R WCI  28
MARFA          CLEAR     40  24  53 CALM      30.08R
PECOS          SUNNY     46  26  46 SW8       30.00R
$$

DALLAS/FORT WORTH METROPLEX

CITY           SKY/WX    TMP DP  RH WIND       PRES   REMARKS
DFW AIRPORT    TSTM      60  57  89 W10       29.96R FOG
FTW MEACHAM    RAIN      59  55  87 W7        29.95F
DAL-EXECUTIVE  TSTM      59  57  93 W18G24    29.94S FOG
GRAND PRAIRIE  CLOUDY    58  58 100 W7G18     29.98R
ADDISON        TSTM      58  56  93 W12G21    29.99R
MESQUITE       CLOUDY    58  56  95 W20G26    29.95R
LANCASTER      TSTM      58  56  94 NW16G23   29.95F
$$

NORTH CENTRAL TEXAS

CITY           SKY/WX    TMP DP  RH WIND       PRES   REMARKS
SHRMAN/DENISON CLOUDY    58  56  93 W16       29.92R
GAINESVILLE    CLOUDY    57  54  91 W12       29.95R
BRIDGEPORT     RAIN      56  56 100 CALM      29.97F
DENTON         HVY RAIN  57  56  96 W7        29.97R FOG
WAXAHACHIE     LGT RAIN  57  57 100 W14G23    29.95F
GRANBURY       TSTM      58  55  91 CALM      29.98R
$$

WESTERN NORTH TEXAS

CITY           SKY/WX    TMP DP  RH WIND       PRES   REMARKS
WICHITA FALLS  LGT RAIN  55  53  93 SE9       29.92S
VERNON         CLOUDY    57  50  77 S10G16    29.89R
BRECKENRIDGE   LGT RAIN  56  55  97 SE12      29.87F
COMANCHE       RAIN      55  55 100 MISG      29.92F
$$

CENTRAL AND SOUTH CENTRAL TEXAS

CITY           SKY/WX    TMP DP  RH WIND       PRES   REMARKS
AUSTIN/BERGSTM CLOUDY    61  58  90 NW9       29.86F
WACO           TSTM      58  56  93 MISG      29.97S FOG
HILLSBORO      TSTM      59  57  94 W13G22    30.00R
TEMPLE         TSTM      57  55  94 NW15G21   29.92F
KILLEEN-GRAY   LGT RAIN  57  55  94 NW9       29.86F
FORT HOOD      LGT RAIN  55  55 100 N12       29.86F
GEORGETOWN     CLOUDY    57  54  88 N15G21    29.87F
LAGO VISTA     CLOUDY    57  56  97 N9G18     29.88F
SAN MARCOS     CLOUDY    59  55  88 N12       29.88S
NEW BRAUNFELS  LGT RAIN  60  57  89 VRB3      29.86S
RANDOLPH AFB   LGT RAIN  59  59 100 NW8       29.88R
SAN ANTONIO    TSTM      60  57  89 NW6       29.90R
STINSON        RAIN      62  59  90 CALM      29.87R
PLEASANTON     NOT AVBL
LA GRANGE      TSTM      61  59  93 N9        29.90S
GIDDINGS       LGT RAIN  58  57  95 N7G20     29.92F
$$

EAST TEXAS

CITY           SKY/WX    TMP DP  RH WIND       PRES   REMARKS
PARIS          CLOUDY    68  63  83 S14       29.90F
CLARKSVILLE    NOT AVBL
TYLER          CLOUDY    69  65  86 SE13      29.88F
LONGVIEW       CLOUDY    69  65  86 SE13      29.89F
PALESTINE      CLOUDY    70  67  91 SE9       29.91S
NACOGDOCHES    CLOUDY    70  64  83 SE7       29.91F
$$

TEXAS HILL COUNTRY AND EDWARDS PLATEAU

CITY           SKY/WX    TMP DP  RH WIND       PRES   REMARKS
LLANO          PTSUNNY   57  55  94 CALM      29.92R
HORSESHOE BAY  PTSUNNY   57  56  97 CALM      29.84F
KERRVILLE      PTCLDY    56  55  95 CALM      29.91F
FREDERICKSBRG  CLOUDY    55  54  95 W5          N/A
ROCKSPRINGS    LGT RAIN  54  54 100 CALM      29.94R
HONDO          LGT RAIN  60  60 100 E8        29.91R
UVALDE         DRIZZLE   58  55  91 CALM      29.92R
DEL RIO        CLOUDY    59  52  77 NW6       29.89F
$$

SOUTHEAST TEXAS

CITY           SKY/WX    TMP DP  RH WIND       PRES   REMARKS
COLLEGE STN    TSTM      58  57  97 NW24G41   29.94R VSB 1/2
CALDWELL       NOT AVBL
CROCKETT       CLOUDY    68  66  94 SE8       29.94S FOG
BRENHAM        TSTM      63  60  90 NW16G28   29.96R
HUNTSVILLE     CLOUDY    71  67  87 S9        29.92R
CONROE         CLOUDY    69  67  93 SE12      29.90F
HOUSTON BUSH   CLOUDY    70  68  93 SE13      29.89F
HOUSTON HOBBY  CLOUDY    71  68  90 SE12      29.89F
PERLAND        CLOUDY    73  68  84 S13       29.92R
WHARTON        CLOUDY    71  69  93 S9        29.89F FOG
$$

THE UPPER TEXAS COAST

CITY           SKY/WX    TMP DP  RH WIND       PRES   REMARKS
ORANGE         CLOUDY    70  68  95 SE14G21   29.95F
PORT ARTHUR    CLOUDY    69  67  93 SE14G31   29.92F
GALVESTON      CLOUDY    71  69  93 SE16      29.89F
ANGLETON       CLOUDY    73  70  90 SE16      29.88F
BAY CITY       CLOUDY    73  71  92 SE12G17   29.87F
$$

TEXAS COASTAL BEND, RIO GRANDE PLAINS DEEP SOUTH TEXAS

CITY           SKY/WX    TMP DP  RH WIND       PRES   REMARKS
VICTORIA       CLOUDY    66  62  87 NW17G26   29.87S
BEEVILLE       CLOUDY    66  66 100 NE10      29.85F
ROCKPORT       CLOUDY    73  70  90 E3        29.85S FOG
PORT ARANSAS   CLOUDY    72  70  96 SE6       29.84F FOG
PORT LAVACA    CLOUDY    72  71  99 CALM      29.86F FOG
CORPUS CHRISTI CLOUDY    73  72  96 SE12      29.83S
KINGSVILLE NAS MOCLDY    72  71  97 CALM      29.83R
COTULLA        HVY RAIN  62  58  86 E10       29.89F
LAREDO         CLOUDY    61  58  90 NW8       29.89R
BROWNSVILLE    CLOUDY    76  73  91 S20       29.80F
PORT ISABEL    CLOUDY    76  72  87 S13G23    29.80R FOG
HEBBRONVILLE   CLOUDY    63  60  93 N8        29.87F
MCALLEN        CLOUDY    78  70  76 S9        29.82S
WESLACO        CLOUDY    76  70  83 S10G18    29.80F
FALFURRIAS     CLOUDY    73  69  88 CALM      29.84R
EDINBURG       CLOUDY    78  69  74 S7        29.82R
$$



USA.gov is the U.S. government's official web portal to all federal, state and local government web resources and services.